Theta_e
308 308 309 309 311 311 310 309 308 309 308 308 308 308 307 307 307 308 311 324 314 309 312 315 315 314 316 316 313 321 319 319 318 314 309 310 309 311 314 318 316 316 310 304 307 306 306 322 320 315 329 339 333 331
308 308 308 309 311 310 308 308 308 308 308 308 307 307 306 306 306 306 311 321 316 310 313 314 316 317 317 319 317 324 320 322 325 318 315 315 312 316 319 309 322 314 318 312 306 313 327 327 325 330 336 332 333 338
308 308 308 309 309 308 307 307 308 308 307 307 307 306 305 305 306 306 312 317 314 306 306 306 307 314 315 318 323 314 321 325 329 331 320 320 318 321 314 315 318 320 321 318 321 323 324 327 328 334 334 332 332 335
308 308 308 309 308 307 307 307 307 307 306 306 306 305 304 305 306 305 311 316 313 311 305 308 316 314 317 316 315 318 319 324 325 321 318 316 314 324 315 318 316 317 317 316 321 323 319 322 332 332 330 330 329 331
308 308 309 308 307 306 306 306 307 306 306 306 306 305 304 304 305 307 311 314 315 311 307 309 316 317 316 317 315 315 318 317 312 309 312 312 317 317 318 317 313 319 321 315 315 325 326 327 332 330 327 327 328 329
308 309 308 307 306 306 306 306 306 306 306 306 306 305 304 305 306 309 305 311 313 313 306 303 315 313 314 314 314 315 314 314 311 308 307 311 322 318 312 312 322 323 325 326 323 327 330 330 331 330 326 326 326 327
307 306 305 305 305 305 305 306 305 305 304 304 304 303 303 304 308 307 306 312 310 315 307 303 304 313 316 315 313 312 319 313 312 310 309 308 310 313 311 308 319 321 322 323 325 325 324 324 324 328 327 324 325 327
305 304 304 305 305 305 305 304 303 303 303 303 303 303 304 305 305 305 312 309 309 311 309 302 305 309 316 310 309 313 309 311 311 309 310 308 309 311 304 315 318 318 318 319 319 321 322 323 325 324 324 323 322 324
303 304 305 305 305 304 304 303 303 302 302 303 303 304 307 307 306 310 311 311 317 313 305 302 301 301 315 311 312 312 312 306 312 307 307 308 305 303 309 313 314 314 314 315 316 317 317 318 319 319 320 320 321 322
303 305 305 305 304 303 303 302 302 303 303 303 305 306 301 308 311 313 311 307 305 307 308 304 307 303 312 309 309 310 311 307 303 307 311 307 304 314 314 316 317 316 315 316 315 315 315 316 317 318 319 321 323 324
304 304 304 303 302 302 302 302 302 303 302 306 306 305 310 308 310 309 300 300 301 299 302 302 305 303 311 307 307 311 307 310 303 306 305 304 304 313 318 317 319 320 319 317 319 319 318 320 319 320 320 321 326 329
303 303 303 303 303 303 303 302 302 305 307 306 308 308 308 307 305 299 298 300 299 296 303 301 302 305 308 310 306 310 304 305 299 310 306 303 309 317 317 317 319 322 322 323 324 323 323 323 323 325 327 330 330 331
304 304 303 303 303 303 303 303 303 304 304 311 307 302 303 302 292 293 291 295 297 303 305 305 304 306 308 309 304 303 298 299 307 302 300 306 319 320 323 322 322 325 325 325 324 325 326 326 328 330 329 330 331 331
303 302 302 302 302 302 302 302 303 306 307 303 299 288 294 294 295 298 298 300 304 306 305 305 306 304 306 303 301 296 299 300 295 296 299 315 322 324 323 326 324 324 325 325 324 326 326 327 328 329 331 331 331 330
302 301 301 301 301 301 301 302 303 308 306 299 299 290 294 301 302 304 307 306 306 308 306 305 305 305 303 301 302 300 297 294 296 297 310 320 322 322 323 324 324 323 324 324 326 326 326 327 328 330 331 331 331 331
303 303 301 302 303 303 304 304 307 308 303 300 298 296 301 300 300 303 304 303 307 306 307 305 302 299 298 300 297 296 294 294 302 311 318 322 321 322 322 322 322 323 323 325 326 325 326 326 329 328 331 330 329 329
302 302 302 303 303 304 304 304 303 298 298 294 295 301 302 301 301 303 303 305 308 304 300 301 296 295 301 297 296 300 298 302 309 311 315 319 319 320 321 321 321 321 322 322 324 325 325 329 329 328 325 327 328 326
302 303 303 303 303 304 306 304 300 297 292 296 295 298 301 302 301 302 304 306 304 303 302 298 302 296 295 293 295 302 305 309 311 311 312 316 318 319 318 319 319 320 319 321 322 324 325 324 323 325 327 322 320 318
301 301 301 303 302 302 300 300 302 294 295 299 299 301 300 301 302 302 302 303 306 307 305 302 297 296 297 301 301 303 304 306 305 308 311 316 318 316 316 317 317 317 317 318 321 320 324 323 322 322 321 321 317 314
300 301 302 303 303 302 294 299 303 296 295 298 301 299 300 300 302 303 302 301 300 302 298 297 297 300 301 303 305 304 306 307 307 305 307 310 313 317 315 316 316 319 318 320 319 311 321 322 320 319 317 315 313 310
297 302 303 303 305 302 299 298 297 299 298 296 299 301 299 301 300 300 300 303 299 297 296 301 301 303 308 307 307 307 308 310 307 307 306 307 312 313 314 315 316 316 318 320 321 320 313 322 318 316 313 311 310 309
302 302 303 303 299 298 298 301 297 298 296 296 296 297 296 296 297 300 303 299 299 299 301 300 301 303 303 304 305 308 308 311 313 309 304 306 309 310 312 316 316 317 318 319 318 319 318 317 314 313 311 309 307 309
301 301 301 298 293 291 289 301 294 296 292 295 298 295 296 298 301 307 301 302 302 307 307 305 305 307 307 310 311 311 311 311 312 310 312 314 315 312 314 313 313 312 311 312 312 308 308 303 304 303 305 304 302 301
298 297 293 292 294 289 297 293 297 294 294 293 293 292 295 300 303 301 297 299 304 305 306 304 308 308 309 308 306 308 309 314 313 313 313 312 312 308 307 305 304 305 306 306 304 303 303 302 300 303 302 303 303 300
289 289 290 283 293 290 288 289 292 291 290 293 292 293 295 302 297 296 296 294 297 298 298 299 302 302 301 304 306 306 309 308 309 305 303 307 306 302 300 300 300 301 303 299 298 297 296 296 295 294 294 294 296 296
285 290 287 291 292 289 290 289 291 292 293 292 293 298 300 297 292 290 290 293 294 295 295 296 296 297 298 299 298 299 299 302 302 297 297 299 301 300 298 297 296 297 301 300 297 295 294 295 294 293 293 292 289 293
285 288 293 297 294 293 292 295 295 293 290 290 294 294 294 288 288 289 295 297 296 296 298 298 297 296 296 296 297 298 299 299 298 298 299 299 298 298 298 297 296 299 302 300 299 297 295 294 293 293 293 293 293 292
290 290 286 290 289 292 288 289 289 288 290 295 294 289 287 286 288 294 296 299 300 301 300 299 299 299 298 298 300 300 300 300 300 301 300 298 300 300 299 299 299 289 299 299 301 300 298 296 294 293 292 291 291 292
287 290 289 286 287 289 289 289 290 293 295 293 290 290 290 294 296 298 299 301 302 301 301 299 300 301 301 301 301 301 301 301 298 295 294 294 295 297 301 299 299 299 297 295 284 291 295 294 293 292 292 291 291 291
292 293 290 291 289 290 294 294 293 295 296 296 297 296 295 296 299 302 303 303 303 301 300 300 300 300 299 299 298 299 302 301 300 298 296 296 297 300 301 300 299 297 296 295 294 293 285 291 289 294 293 293 293 292
301 295 293 296 296 301 301 302 302 301 300 297 297 298 297 298 301 304 305 308 304 302 300 299 299 300 298 297 297 296 295 298 299 299 299 301 301 300 299 299 299 299 298 297 296 295 295 294 293 292 292 291 290 290
303 301 299 296 299 305 305 303 300 299 299 298 297 299 299 298 297 302 304 305 303 301 294 298 298 298 300 300 300 298 290 296 295 296 297 298 298 298 298 298 298 297 296 296 295 295 294 293 293 292 291 290 290 290
300 299 298 297 296 296 299 300 300 298 299 298 297 299 299 298 296 302 307 305 303 301 300 300 301 300 301 300 300 298 295 297 291 285 285 285 284 288 296 298 298 297 296 295 295 294 293 292 292 291 291 290 290 289
Wind_Speed
20 20 19 16 20 22 26 24 21 18 16 14 11 9 7 5 5 5 6 5 7 8 14 12 10 8 10 6 9 6 3 5 6 10 12 12 13 14 14 14 12 9 8 5 9 11 11 12 16 10 5 6 9 9
19 19 20 20 22 23 25 24 21 18 15 13 11 8 6 5 5 4 7 7 8 7 9 14 12 13 10 8 6 5 4 4 7 6 9 10 11 11 12 12 11 12 4 7 9 14 10 8 7 13 8 6 8 10
19 18 19 24 23 22 24 24 21 18 15 13 10 8 5 4 6 6 6 5 5 7 11 12 13 12 11 10 5 4 4 7 3 5 5 5 7 8 10 7 12 6 17 10 6 9 5 8 7 5 9 6 7 9
19 19 21 22 23 25 25 24 21 18 15 13 10 7 4 4 7 8 7 4 4 6 6 4 7 8 6 8 10 8 7 6 6 6 7 6 8 8 10 12 13 3 10 20 8 6 8 27 14 12 9 9 11 11
17 19 26 28 27 24 24 23 21 17 15 12 9 6 3 3 7 8 8 5 3 6 6 5 2 10 7 6 10 9 6 5 6 6 7 8 9 11 11 14 13 12 10 9 7 8 8 7 6 8 7 11 11 13
12 21 29 28 28 25 23 23 19 17 14 11 8 5 2 2 6 6 6 6 4 3 5 5 3 7 8 8 8 9 7 5 6 5 7 9 13 8 8 12 13 15 15 14 11 10 10 5 5 10 13 13 12 12
25 26 25 27 24 23 22 21 18 15 12 9 6 3 1 3 5 4 6 5 6 5 5 5 5 9 9 8 8 7 8 6 7 8 11 11 11 9 10 13 14 18 18 17 15 17 14 14 12 13 13 15 16 11
30 30 26 22 21 20 20 18 16 13 10 7 4 3 4 4 7 4 3 4 3 5 4 5 4 5 8 7 7 8 7 7 5 7 6 8 10 10 11 12 16 17 17 17 17 16 16 16 15 15 14 13 17 9
30 27 24 21 20 19 17 16 13 11 8 6 4 3 4 4 4 5 5 4 4 5 4 4 7 5 6 7 7 7 5 6 6 9 11 8 10 9 9 16 19 18 17 16 17 18 18 16 15 15 14 14 11 9
26 24 21 19 18 17 15 13 11 9 7 5 5 5 5 5 9 7 3 5 5 5 5 5 9 7 3 6 6 3 5 7 7 9 9 12 12 14 15 17 14 15 18 16 15 13 15 15 15 15 14 12 9 10
23 21 19 17 16 14 12 10 9 8 5 5 7 3 5 3 5 5 4 5 6 5 5 6 10 6 4 4 3 5 4 4 8 11 11 9 10 13 19 19 16 15 16 16 15 15 17 16 14 13 11 12 8 9
20 19 17 16 13 10 7 7 9 6 2 2 2 7 5 5 5 5 6 4 6 6 6 7 6 6 3 4 4 4 3 4 6 5 5 14 11 9 9 4 4 7 5 7 9 10 11 11 11 7 4 8 7 7
18 17 15 13 11 9 7 6 6 8 9 4 4 6 3 3 2 6 7 5 5 2 5 4 4 3 2 2 4 4 4 5 7 5 11 8 3 2 5 5 4 9 7 5 10 11 12 11 8 8 6 6 6 6
16 15 13 11 9 7 6 3 3 6 3 5 4 3 4 6 6 6 8 5 6 5 5 6 5 5 4 5 5 5 5 5 5 7 9 9 12 12 11 12 11 11 11 12 12 12 12 12 9 8 8 6 6 6
12 11 11 9 6 4 4 4 4 4 5 2 3 3 6 2 3 8 8 7 4 4 4 2 3 2 5 3 4 4 4 5 5 4 5 8 12 12 12 11 11 10 12 11 11 9 9 9 8 8 4 4 3 3
8 9 8 8 7 7 9 8 5 3 2 3 2 3 3 3 5 2 2 7 2 3 1 3 3 4 6 4 5 6 5 4 8 12 8 8 9 9 10 11 12 14 13 13 9 9 10 9 5 4 4 9 9 9
6 5 7 10 11 12 11 5 3 2 3 2 5 4 1 3 3 4 4 4 5 3 4 4 5 7 4 5 12 5 9 4 9 11 9 9 10 8 9 10 10 10 10 9 8 9 9 10 8 9 6 1 7 7
10 6 9 12 11 5 4 3 1 2 4 5 4 5 3 1 2 1 1 1 3 3 5 6 5 7 7 5 8 2 5 6 7 8 6 8 7 7 6 6 8 9 9 12 11 10 6 9 11 4 6 6 7 6
8 7 9 10 8 4 1 3 3 3 4 0 3 1 1 3 3 4 5 5 4 3 2 4 5 7 9 10 11 12 9 7 9 10 7 9 9 10 9 9 9 10 10 11 13 6 8 3 3 5 3 3 3 4
6 5 10 10 5 3 2 3 2 3 4 5 3 3 3 4 4 4 5 6 7 6 6 5 9 9 8 8 10 10 11 10 9 8 11 9 7 12 6 6 10 10 11 13 10 7 9 5 3 6 4 3 3 5
6 7 11 6 1 4 4 2 2 0 3 3 4 2 4 4 5 7 7 7 8 10 11 10 11 11 12 11 10 10 12 13 10 10 12 9 12 7 8 9 9 10 9 8 9 9 6 4 4 5 5 4 6 6
5 8 4 1 3 3 2 2 4 4 3 4 6 5 5 6 7 7 6 8 9 9 10 10 11 11 10 11 12 7 9 15 14 12 13 12 10 12 6 4 7 8 8 7 8 9 2 4 4 4 5 6 5 5
8 4 1 4 4 3 4 3 2 4 4 4 4 3 3 3 4 4 2 6 9 7 9 7 9 10 7 11 14 10 11 15 9 10 12 10 8 6 7 9 7 8 9 7 8 8 6 7 8 7 6 6 7 4
1 5 6 3 2 3 3 2 2 3 4 2 3 4 5 2 3 3 6 5 9 12 11 14 11 9 8 10 7 7 9 8 7 6 7 7 6 6 7 7 6 6 5 5 6 5 6 6 6 7 6 5 4 6
2 4 3 3 4 2 2 3 4 2 4 4 4 6 4 4 3 3 5 5 9 9 9 9 10 9 9 11 8 8 13 10 9 5 7 7 4 6 6 6 6 7 5 7 7 9 9 9 10 11 11 11 11 11
2 2 0 5 3 2 3 4 5 5 5 3 3 3 3 3 3 5 4 6 6 7 8 7 7 6 6 6 7 6 7 7 5 6 7 7 7 5 6 6 6 6 6 6 6 8 9 8 10 12 10 11 10 8
2 3 3 4 4 1 3 3 5 4 3 3 5 5 4 4 4 2 2 3 2 3 5 5 5 5 5 5 5 5 6 8 8 6 6 8 8 8 7 5 7 5 4 5 6 7 8 8 8 7 6 3 3 4
2 2 2 3 3 2 2 3 2 2 3 4 4 3 3 2 2 2 1 3 3 2 2 2 4 4 5 6 5 3 2 2 3 3 5 6 4 3 4 4 4 6 4 4 4 5 5 4 4 6 5 6 5 4
2 2 2 3 3 2 3 3 2 1 1 2 2 1 1 2 2 1 3 5 4 5 5 5 3 4 4 3 3 2 2 2 5 8 7 3 0 3 4 4 4 3 4 5 5 4 6 6 6 6 8 6 4 3
4 6 4 4 4 4 4 6 3 4 3 2 1 1 1 1 2 4 5 5 5 2 2 4 4 2 3 2 6 6 5 1 4 5 5 5 5 4 6 5 7 7 6 6 6 6 1 6 5 4 3 3 3 5
5 6 5 5 5 6 7 8 3 4 3 3 3 3 3 3 3 6 6 5 3 4 4 5 5 5 5 6 7 7 6 7 8 8 9 7 7 6 5 5 5 4 3 4 3 3 3 5 5 5 5 5 5 5
3 7 8 3 4 6 9 9 7 6 7 5 6 5 4 4 4 3 5 2 0 3 4 5 5 6 7 6 6 7 6 7 7 8 12 9 7 7 4 4 4 4 4 5 4 4 4 4 4 4 5 5 4 4
2 7 7 6 5 5 3 3 5 2 3 6 4 1 3 3 5 3 2 3 4 3 3 4 3 2 4 4 3 6 6 6 6 4 5 4 5 9 8 6 3 3 3 3 5 5 5 4 5 4 4 4 4 5
Wind_Direction
216 220 215 220 217 199 185 166 166 170 179 189 192 196 220 252 292 281 292 188 251 271 283 318 320 310 327 308 271 18 233 179 265 234 249 248 255 264 269 255 267 180 148 179 240 317 243 354 350 3 334 322 326 337
214 218 210 211 199 185 173 158 160 164 172 180 186 191 209 252 290 301 265 193 215 253 304 325 306 302 310 332 328 304 355 308 11 283 237 262 264 268 264 271 233 245 282 167 150 212 209 204 174 228 232 0 337 336
211 211 214 206 171 174 166 154 153 157 166 171 178 186 202 255 293 301 294 353 230 257 275 252 249 254 221 247 290 292 54 349 87 347 318 302 289 311 291 291 284 329 20 297 289 308 293 250 290 95 67 30 334 319
214 214 201 170 166 168 157 148 146 154 159 165 172 180 203 263 300 310 264 347 292 295 273 239 165 197 200 225 221 232 283 325 308 284 293 287 295 309 293 304 301 240 92 239 282 316 49 293 48 40 22 346 335 320
214 214 172 165 158 161 151 142 144 150 154 160 166 171 198 272 305 284 265 265 273 303 325 334 216 225 161 220 228 224 230 263 278 280 259 260 278 289 289 293 286 302 300 318 315 305 316 306 89 38 318 298 303 287
161 181 165 148 148 147 145 136 141 147 151 157 161 161 178 293 318 250 216 196 221 243 280 258 115 161 186 197 222 223 215 223 237 263 256 260 285 299 271 268 281 288 290 307 323 340 339 345 295 301 304 310 325 330
147 126 126 133 138 143 134 132 140 145 148 155 158 167 234 296 264 291 2 16 338 298 248 254 230 166 188 190 214 219 210 238 231 251 237 262 272 273 263 257 280 288 299 312 323 325 318 311 303 299 302 300 295 288
126 122 126 134 136 131 127 133 140 144 150 165 182 225 259 278 276 225 159 219 304 260 251 268 257 182 179 207 222 199 215 203 220 241 257 247 240 242 254 262 270 274 283 289 293 293 294 297 296 294 298 292 282 290
120 126 134 135 130 128 129 135 141 147 158 187 222 254 214 226 220 75 130 181 250 298 287 228 253 211 174 230 230 163 217 237 223 234 234 248 241 238 241 238 251 262 267 278 280 286 283 284 287 286 282 284 310 325
133 131 126 126 125 127 133 139 145 157 179 200 216 208 171 74 120 149 148 185 200 208 227 263 272 280 206 212 212 196 187 229 254 219 229 232 244 260 262 263 264 274 281 284 286 289 289 288 294 301 299 307 308 291
117 117 122 125 125 129 136 147 159 166 183 212 206 63 89 119 192 222 181 211 186 211 206 232 267 298 170 289 278 209 256 226 243 237 245 237 237 237 234 241 247 247 255 264 267 271 269 263 264 270 275 273 294 1
114 116 117 116 116 116 126 159 176 212 171 351 66 104 151 212 218 199 186 220 204 222 153 213 208 232 10 6 278 294 236 235 260 291 249 225 244 272 293 291 9 342 309 282 284 282 281 280 272 280 21 28 8 347
110 107 106 104 99 91 94 128 185 280 270 191 228 166 190 150 123 209 192 184 206 184 127 173 180 232 159 287 274 289 262 260 300 276 255 270 40 145 54 359 351 354 349 9 328 330 344 342 35 43 15 11 350 306
103 102 99 94 89 80 68 51 279 275 271 225 132 12 203 178 213 212 195 164 88 105 140 188 171 194 219 167 235 226 234 285 271 273 242 47 41 43 32 7 0 348 351 343 340 349 345 4 2 4 30 359 343 2
107 110 108 74 56 37 352 308 282 244 265 170 183 191 213 286 184 60 69 90 58 34 159 209 285 249 182 259 235 238 250 237 226 230 60 48 35 24 16 6 7 355 349 347 350 352 352 353 1 345 17 329 356 56
149 126 43 360 352 339 322 275 228 255 256 253 253 225 44 233 123 106 211 119 157 262 78 287 268 233 210 225 217 220 218 207 38 39 62 51 39 28 20 19 7 355 1 353 354 359 339 343 322 330 326 60 53 53
267 63 2 351 330 309 284 271 202 245 292 238 215 270 295 345 53 93 154 71 96 283 236 239 225 217 261 243 232 247 257 340 33 38 30 28 15 9 11 12 10 356 339 331 326 336 328 305 316 1 74 130 90 78
93 84 4 345 334 200 202 240 222 238 217 228 237 173 186 332 318 291 315 171 255 234 266 273 324 259 259 254 252 240 272 8 27 24 360 340 356 353 333 334 336 339 337 328 324 322 312 357 323 46 46 80 94 97
40 19 350 330 332 297 134 148 294 249 241 268 246 269 240 279 286 308 300 299 304 329 331 308 259 247 250 272 293 305 331 9 340 323 308 316 313 312 322 310 297 297 308 322 300 311 319 334 305 354 3 336 46 58
332 318 329 304 300 270 199 114 277 287 274 32 301 264 263 268 280 255 233 229 244 216 210 234 256 269 287 296 313 327 314 318 317 309 314 308 314 323 308 332 316 323 301 290 310 329 294 309 354 51 29 82 130 117
178 359 307 276 126 17 343 329 195 331 307 276 302 258 259 230 253 261 243 238 234 237 246 231 235 257 281 296 307 314 316 320 321 311 306 319 311 287 305 307 321 322 324 322 317 306 283 303 71 59 53 78 88 94
13 301 289 32 9 44 277 126 334 349 282 296 306 275 263 261 265 243 239 246 235 233 238 248 259 272 283 279 274 299 319 289 284 295 294 289 307 300 304 309 320 319 311 326 335 324 40 98 112 128 140 126 132 129
303 260 341 23 34 53 275 291 301 316 295 316 340 291 250 260 304 346 263 241 246 328 314 267 246 260 309 327 325 322 301 302 299 313 293 286 291 312 306 29 3 349 337 1 13 17 23 21 52 65 48 73 84 39
226 335 343 352 169 272 49 10 308 316 302 300 280 286 301 284 259 245 264 43 21 16 13 11 354 353 337 312 288 296 289 306 314 305 358 348 1 37 40 35 25 13 12 23 49 38 41 35 69 72 32 56 78 69
347 352 137 294 266 15 334 254 227 249 252 234 239 267 320 1 283 297 17 27 2 13 357 339 332 335 318 303 328 4 11 360 337 51 16 346 101 96 76 64 48 32 34 67 66 65 63 64 66 62 48 42 60 69
4 129 191 359 44 341 337 304 12 356 312 291 276 354 349 308 299 54 22 355 16 359 356 350 335 323 326 3 346 348 342 346 44 54 24 10 28 77 90 84 75 58 40 59 71 73 73 69 68 69 71 67 59 78
337 39 19 346 334 277 260 282 302 291 291 296 355 340 9 3 26 14 310 22 345 17 7 356 357 3 4 21 33 26 35 52 63 56 53 47 44 40 39 56 59 56 58 69 70 72 74 77 80 82 91 100 134 163
321 336 296 359 345 351 319 297 279 281 307 330 338 6 15 3 6 342 85 234 219 175 106 50 26 12 17 21 17 30 57 64 89 76 71 48 30 54 74 80 62 40 55 36 82 99 96 96 97 95 92 75 57 46
233 209 215 246 218 236 226 246 283 237 306 309 326 352 113 194 306 231 229 245 245 262 263 211 200 189 174 154 116 114 97 117 89 73 78 93 208 162 157 147 133 129 125 106 42 64 136 144 143 152 164 160 145 90
228 172 221 223 213 221 208 189 218 198 204 238 121 166 166 228 242 254 258 273 285 344 16 15 24 355 8 191 145 155 186 349 337 357 28 46 70 140 172 176 174 146 128 123 120 127 39 172 173 173 139 113 107 116
135 171 232 229 207 211 171 166 114 142 156 150 210 229 189 177 226 225 236 262 346 37 18 34 19 28 36 32 12 16 57 48 32 26 1 23 42 45 37 34 26 29 46 53 88 114 121 84 76 79 71 68 54 40
208 236 273 58 92 146 144 171 177 195 180 185 192 213 189 211 207 169 130 154 206 55 61 35 25 23 15 43 68 92 48 44 26 20 7 11 24 12 54 58 35 26 47 53 55 83 77 71 82 93 104 73 52 43
309 26 10 349 353 5 349 188 177 97 185 130 31 235 178 57 71 64 17 350 58 72 91 76 73 62 60 37 59 139 131 105 105 101 91 49 19 359 345 44 52 99 93 104 111 115 100 85 66 54 59 44 45 31